Zurück zum Katalog

CZ-6A DEB

AktivPO
NORAD 61477·DEBRIS·🇨🇳 China

Gestartet Aug 6, 2024 von Taiyuan Satellite Launch Center

Loading…

Nächste Überflüge (nächste 24 Stunden)

TLE

AktuellSource: Space-Track

Epoche: Sep 14, 2026, 10:55 UTC

1 61477U 24140AAK 26257.45530758  .00004597  00000-0  83214-3 0  9991
2 61477  89.0282 262.3732 0084857 295.0179  64.2241 14.63869621107919

Verfolge CZ-6A DEB in Echtzeit mit AllMySat

Download on the App Store